PACCTY Weather Reports


Display with metric or nautical units.
time (UTC)temp
F
wind
direction
speed
MPH
gust
MPH
rain 1hr
in
rain 24hr
in
rain mn
in
humidity
%
barometer
mb
20260902112832 60 208 3.0 5.0 0.00 0.02 0.00 91 1007.4
20260902111832 60 189 1.0 5.0 0.00 0.02 0.00 91 1007.4
20260902110833 60 201 4.0 5.0 0.00 0.02 0.00 92 1007.7
20260902105837 60 196 0.0 5.0 0.00 0.02 0.00 92 1007.8
20260902104832 60 190 4.0 6.0 0.00 0.02 0.00 92 1008.0
20260902103333 60 170 5.0 6.0 0.00 0.02 0.00 92 1008.0
20260902102833 60 179 5.0 6.0 0.00 0.02 0.00 92 1008.1
20260902102333 60 180 4.0 6.0 0.00 0.02 0.00 92 1008.1
20260902101832 60 186 4.0 7.0 0.00 0.02 0.00 92 1008.2
20260902101332 60 205 4.0 7.0 0.00 0.02 0.00 92 1008.2
20260902095832 60 194 4.0 6.0 0.00 0.02 0.00 93 1008.4
20260902094832 60 201 5.0 7.0 0.00 0.02 0.00 93 1008.4
20260902094333 60 180 5.0 7.0 0.00 0.02 0.00 93 1008.6
20260902093833 60 211 5.0 6.0 0.00 0.02 0.00 93 1008.7
20260902092833 60 186 4.0 6.0 0.00 0.02 0.00 93 1008.7
20260902092333 61 205 5.0 6.0 0.00 0.02 0.00 92 1008.8
20260902091832 61 205 5.0 7.0 0.00 0.02 0.00 92 1008.8
20260902091332 61 207 5.0 7.0 0.00 0.02 0.00 92 1008.8
20260902085333 61 204 6.0 7.0 0.00 0.02 0.00 91 1008.9
20260902084832 61 201 5.0 7.0 0.00 0.02 0.00 91 1008.9
20260902083333 61 173 5.0 7.0 0.00 0.02 0.00 92 1009.0
20260902082832 60 197 5.0 6.0 0.00 0.02 0.00 92 1009.1
20260902082333 60 201 5.0 6.0 0.00 0.02 0.00 92 1009.3
20260902081832 61 198 5.0 6.0 0.00 0.02 0.00 92 1009.3
20260902081335 61 196 5.0 5.0 0.00 0.02 0.00 92 1009.2
20260902080340 61 204 0.0 4.0 0.00 0.02 0.00 91 1009.4
20260902075832 61 183 0.0 5.0 0.00 0.02 0.00 91 1009.2
20260902074832 61 194 4.0 5.0 0.00 0.02 0.00 91 1009.5
20260902072832 61 218 4.0 6.0 0.00 0.02 0.00 91 1009.7
20260902071832 61 198 5.0 7.0 0.00 0.02 0.00 91 1009.9
20260902065832 60 207 5.0 6.0 0.00 0.02 0.02 91 1009.7
20260902064832 60 183 5.0 5.0 0.00 0.02 0.02 92 1010.0
20260902062832 61 222 5.0 6.0 0.00 0.02 0.02 92 1010.0
20260902061832 61 184 5.0 8.0 0.00 0.02 0.02 92 1010.1
20260902055832 61 182 4.0 6.0 0.00 0.02 0.02 92 1010.2
20260902054832 61 177 5.0 6.0 0.00 0.02 0.02 92 1010.3
20260902054337 61 201 5.0 5.0 0.00 0.02 0.02 92 1010.3
20260902053835 61 180 5.0 5.0 0.00 0.02 0.02 92 1010.4
20260902052832 61 0 0.0 0.0 0.00 0.02 0.02 92 1010.4
20260902051832 61 0 0.0 4.0 0.00 0.02 0.02 92 1010.3
20260902050832 62 0 0.0 2.0 0.00 0.02 0.02 92 1010.3
20260902045834 62 208 0.0 5.0 0.00 0.02 0.02 92 1010.5
20260902044832 62 197 3.0 5.0 0.00 0.02 0.02 91 1010.6
20260902043332 62 204 5.0 5.0 0.00 0.02 0.02 91 1010.7
20260902042833 62 0 3.0 3.0 0.00 0.02 0.02 91 1010.7
20260902041832 61 0 0.0 0.0 0.00 0.02 0.02 92 1010.8
20260902041332 62 0 0.0 5.0 0.00 0.02 0.02 91 1010.8
20260902040832 62 257 0.0 5.0 0.00 0.02 0.02 91 1010.8
20260902040332 61 0 0.0 0.0 0.00 0.02 0.02 91 1010.6
20260902035833 61 0 0.0 4.0 0.00 0.02 0.02 91 1010.7
20260902035332 61 194 0.0 4.0 0.00 0.02 0.02 91 1010.7
20260902034832 61 0 0.0 1.0 0.00 0.02 0.02 91 1010.7
20260902033832 61 0 0.0 0.0 0.00 0.02 0.02 91 1010.7
20260902033335 62 0 0.0 0.0 0.00 0.02 0.02 91 1010.7
20260902032832 62 0 0.0 0.0 0.00 0.02 0.02 90 1010.8
20260902032332 62 0 0.0 0.0 0.00 0.02 0.02 90 1010.7
20260902031832 62 0 0.0 0.0 0.00 0.02 0.02 90 1010.7
20260902031332 62 0 0.0 0.0 0.00 0.02 0.02 90 1010.8
20260902030832 62 0 0.0 0.0 0.00 0.02 0.02 89 1010.7
20260902030332 62 0 0.0 0.0 0.00 0.02 0.02 89 1010.8
20260902025832 62 0 0.0 0.0 0.00 0.02 0.02 89 1010.7
20260902025332 62 0 0.0 0.0 0.00 0.02 0.02 89 1010.8
20260902024832 62 0 0.0 5.0 0.00 0.02 0.02 88 1010.8
20260902024334 62 217 0.0 5.0 0.00 0.02 0.02 88 1010.8
20260902022831 63 221 3.0 5.0 0.00 0.02 0.02 86 1010.8
20260902022331 63 226 4.0 4.0 0.00 0.02 0.02 86 1010.8
20260902021832 63 221 2.0 3.0 0.00 0.02 0.02 86 1010.7
20260902021331 63 218 2.0 5.0 0.00 0.02 0.02 86 1010.7
20260902020831 63 217 2.0 5.0 0.00 0.02 0.02 85 1010.7
20260902020331 63 214 3.0 5.0 0.00 0.02 0.02 85 1010.7
20260902015831 63 214 4.0 5.0 0.00 0.02 0.02 85 1010.6
20260902015331 64 215 4.0 5.0 0.00 0.02 0.02 84 1010.6
20260902014833 64 200 4.0 5.0 0.00 0.02 0.02 84 1010.5
20260902014332 64 211 4.0 6.0 0.00 0.02 0.02 83 1010.6
20260902013831 64 210 4.0 6.0 0.00 0.02 0.02 83 1010.6
20260902013331 64 204 4.0 6.0 0.00 0.02 0.02 83 1010.6
20260902012832 64 218 5.0 5.0 0.00 0.02 0.02 85 1010.6
20260902012336 64 217 0.0 5.0 0.00 0.02 0.02 85 1010.6
20260902011831 64 214 0.0 5.0 0.00 0.02 0.02 85 1010.6
20260902010831 64 203 3.0 4.0 0.00 0.02 0.02 85 1010.6
20260902010331 64 245 3.0 5.0 0.00 0.02 0.02 84 1010.6
20260902005832 64 204 3.0 5.0 0.00 0.02 0.02 84 1010.6
20260902005331 64 235 4.0 5.0 0.00 0.02 0.02 84 1010.6
20260902004832 64 211 3.0 5.0 0.00 0.02 0.02 84 1010.6
20260902003831 65 212 4.0 7.0 0.00 0.02 0.02 83 1010.7
20260902003331 65 298 4.0 7.0 0.00 0.02 0.02 82 1010.7
20260902002832 65 228 4.0 11.0 0.00 0.02 0.02 81 1010.7
20260902002331 65 254 4.0 11.0 0.00 0.02 0.02 81 1010.8
20260902001832 65 215 4.0 6.0 0.00 0.02 0.02 79 1010.8
20260902001333 65 212 4.0 5.0 0.00 0.02 0.02 82 1010.7
20260902000831 65 211 3.0 5.0 0.00 0.02 0.02 82 1010.8
20260902000331 65 183 2.0 6.0 0.00 0.02 0.02 83 1010.8
20260901235832 65 197 4.0 6.0 0.00 0.02 0.02 84 1010.8
20260901235331 64 207 3.0 6.0 0.00 0.02 0.02 86 1010.8
20260901234831 64 252 4.0 6.0 0.00 0.02 0.02 85 1010.9
20260901234332 64 229 3.0 6.0 0.00 0.02 0.02 85 1010.9
20260901233831 64 250 1.0 4.0 0.00 0.02 0.02 86 1010.9
20260901233331 64 219 3.0 6.0 0.00 0.02 0.02 85 1011.0
20260901232832 65 257 3.0 6.0 0.00 0.02 0.02 84 1010.9
20260901232331 65 226 4.0 5.0 0.00 0.02 0.02 84 1010.9
20260901231331 65 260 3.0 7.0 0.00 0.02 0.02 83 1011.0
20260901230831 65 232 5.0 6.0 0.00 0.02 0.02 84 1010.9
20260901230331 65 231 4.0 8.0 0.00 0.02 0.02 85 1011.0
20260901225831 65 218 5.0 8.0 0.00 0.02 0.02 85 1011.0
20260901225331 65 203 4.0 6.0 0.00 0.02 0.02 85 1011.0
20260901224832 65 232 4.0 6.0 0.00 0.02 0.02 85 1011.0
20260901223831 64 275 4.0 5.0 0.00 0.02 0.02 86 1011.1
20260901223331 64 224 4.0 5.0 0.00 0.02 0.02 86 1011.1
20260901222831 64 204 4.0 5.0 0.00 0.02 0.02 87 1011.1
20260901222331 64 204 4.0 5.0 0.00 0.02 0.02 87 1011.3
20260901221831 64 211 3.0 5.0 0.00 0.02 0.02 86 1011.3
20260901220831 64 211 4.0 6.0 0.00 0.02 0.02 85 1011.1
20260901220331 64 214 4.0 6.0 0.00 0.02 0.02 85 1011.1
20260901215831 64 224 5.0 7.0 0.00 0.02 0.02 85 1011.1
20260901215331 64 204 5.0 7.0 0.00 0.02 0.02 86 1011.1
20260901214831 64 224 5.0 6.0 0.00 0.02 0.02 85 1011.1
20260901214331 64 211 5.0 6.0 0.00 0.02 0.02 85 1011.1
20260901213831 64 205 4.0 7.0 0.00 0.02 0.02 86 1011.0
20260901213331 64 233 4.0 7.0 0.00 0.02 0.02 86 1011.0
20260901212832 63 210 5.0 6.0 0.00 0.02 0.02 86 1011.0
20260901212331 63 226 4.0 6.0 0.00 0.02 0.02 87 1011.0
20260901211831 63 228 4.0 6.0 0.00 0.02 0.02 88 1011.0
20260901211331 63 219 5.0 5.0 0.00 0.02 0.02 88 1011.0
20260901210831 63 208 4.0 7.0 0.00 0.02 0.02 89 1011.0
20260901210331 63 219 5.0 7.0 0.00 0.02 0.02 88 1011.0
20260901205831 62 204 5.0 7.0 0.00 0.02 0.02 89 1011.0
20260901205331 62 232 4.0 7.0 0.00 0.02 0.02 89 1010.8
20260901204831 62 219 6.0 7.0 0.00 0.02 0.02 89 1011.0
20260901202832 62 226 6.0 8.0 0.00 0.02 0.02 91 1011.0
20260901202331 62 260 5.0 8.0 0.00 0.02 0.02 91 1011.1
20260901201832 62 207 4.0 4.0 0.00 0.02 0.02 91 1011.3
20260901200831 62 275 3.0 8.0 0.00 0.02 0.02 91 1011.1
20260901200331 62 203 4.0 6.0 0.00 0.02 0.02 92 1011.3
20260901195331 62 243 5.0 10.0 0.00 0.02 0.02 92 1011.3
20260901194833 62 219 5.0 10.0 0.00 0.02 0.02 92 1011.3
20260901194331 62 196 5.0 10.0 0.00 0.02 0.02 92 1011.3
20260901193831 62 250 5.0 10.0 0.00 0.02 0.02 93 1011.3
20260901192831 62 253 5.0 7.0 0.00 0.02 0.02 93 1011.3
20260901192331 62 228 5.0 5.0 0.00 0.02 0.02 94 1011.3
20260901191832 62 229 4.0 5.0 0.00 0.02 0.02 94 1011.3
20260901191331 62 0 3.0 4.0 0.00 0.02 0.02 94 1011.3
20260901190831 62 261 0.0 4.0 0.00 0.02 0.02 95 1011.1
20260901190331 62 0 2.0 4.0 0.00 0.02 0.02 95 1010.9
20260901185832 62 205 0.0 4.0 0.00 0.02 0.02 95 1011.1
20260901185331 62 168 1.0 3.0 0.00 0.02 0.02 95 1011.1
20260901184831 62 214 0.0 3.0 0.00 0.02 0.02 96 1011.3
20260901183831 62 260 3.0 6.0 0.00 0.02 0.02 96 1011.1
20260901183331 62 0 3.0 4.0 0.00 0.02 0.02 96 1011.1
20260901182831 62 0 0.0 0.0 0.00 0.02 0.02 96 1011.1
20260901182331 62 0 0.0 0.0 0.00 0.02 0.02 96 1011.1
20260901181831 62 0 0.0 0.0 0.00 0.02 0.02 96 1011.0
20260901181333 62 0 0.0 0.0 0.00 0.02 0.02 96 1011.1
20260901180831 62 0 0.0 6.0 0.00 0.02 0.02 96 1011.3
20260901180331 62 270 0.0 6.0 0.00 0.02 0.02 96 1011.3
20260901175831 62 267 0.0 4.0 0.00 0.02 0.02 96 1011.3
20260901175331 62 0 0.0 0.0 0.00 0.02 0.02 96 1011.3
20260901174831 62 0 0.0 4.0 0.00 0.02 0.02 97 1011.3
20260901174337 62 205 0.0 4.0 0.00 0.02 0.02 97 1011.3
20260901173831 62 0 1.0 1.0 0.00 0.02 0.02 97 1011.1
20260901173331 62 0 0.0 0.0 0.01 0.02 0.02 97 1011.0
20260901172831 62 0 0.0 0.0 0.01 0.02 0.02 97 1010.9
20260901172331 61 0 0.0 0.0 0.01 0.02 0.02 97 1010.9
20260901171831 61 0 0.0 0.0 0.01 0.02 0.02 98 1010.8
20260901171331 61 0 0.0 0.0 0.01 0.02 0.02 97 1010.8
20260901170831 61 0 0.0 0.0 0.01 0.02 0.02 98 1010.9
20260901170331 61 0 0.0 0.0 0.01 0.02 0.02 98 1010.9
20260901165831 61 0 0.0 5.0 0.01 0.02 0.02 97 1010.9
20260901165331 61 233 0.0 5.0 0.01 0.02 0.02 98 1010.9
20260901164831 61 0 2.0 2.0 0.01 0.02 0.02 98 1010.8
20260901164331 61 0 0.0 0.0 0.01 0.02 0.02 98 1010.8
20260901163831 61 0 0.0 0.0 0.01 0.02 0.02 98 1010.9
20260901163331 61 0 0.0 0.0 0.00 0.02 0.02 98 1011.0
20260901162832 61 0 0.0 0.0 0.00 0.02 0.02 98 1011.0
20260901162331 61 0 0.0 0.0 0.00 0.01 0.01 98 1011.1
20260901161831 61 0 0.0 0.0 0.00 0.01 0.01 98 1011.1
20260901161331 61 0 0.0 0.0 0.00 0.01 0.01 98 1011.1
20260901160831 61 0 0.0 0.0 0.00 0.01 0.01 98 1011.1
20260901160334 60 0 0.0 0.0 0.00 0.01 0.01 98 1011.1
20260901155831 60 0 0.0 0.0 0.00 0.01 0.01 98 1011.0
20260901155331 60 0 0.0 0.0 0.00 0.01 0.01 98 1011.0
20260901154831 60 0 0.0 0.0 0.00 0.01 0.01 98 1011.0
20260901154331 60 0 0.0 0.0 0.01 0.01 0.01 98 1011.0
20260901153831 60 0 0.0 0.0 0.01 0.01 0.01 98 1011.0
20260901153331 60 0 0.0 0.0 0.01 0.01 0.01 98 1011.0
20260901152832 60 0 0.0 0.0 0.01 0.01 0.01 98 1011.0
20260901152331 60 0 0.0 0.0 0.01 0.01 0.01 98 1011.0
20260901151831 59 0 0.0 0.0 0.01 0.01 0.01 98 1011.0
20260901151335 59 0 0.0 0.0 0.01 0.01 0.01 98 1011.0
20260901150831 59 0 0.0 0.0 0.01 0.01 0.01 98 1011.0
20260901150331 59 0 0.0 0.0 0.01 0.01 0.01 98 1010.9
20260901145831 59 0 0.0 0.0 0.01 0.01 0.01 98 1010.9
20260901145331 59 0 0.0 0.0 0.01 0.01 0.01 98 1010.9
20260901144831 59 0 0.0 0.0 0.01 0.01 0.01 98 1010.9
20260901144331 59 0 0.0 0.0 0.00 0.01 0.01 98 1010.8
20260901143831 59 0 0.0 0.0 0.00 0.01 0.01 98 1010.8
20260901143331 59 0 0.0 0.0 0.00 0.00 0.00 98 1010.8
20260901142831 59 0 0.0 0.0 0.00 0.00 0.00 98 1010.8
20260901142331 59 0 0.0 0.0 0.00 0.00 0.00 98 1010.7
20260901141831 59 0 0.0 0.0 0.00 0.00 0.00 98 1010.6
20260901141331 59 0 0.0 0.0 0.00 0.00 0.00 98 1010.5
20260901140830 59 0 0.0 0.0 0.00 0.00 0.00 98 1010.5
20260901140330 59 0 0.0 0.0 0.00 0.00 0.00 98 1010.5
20260901135830 59 0 0.0 0.0 0.00 0.00 0.00 98 1010.5
20260901134833 59 0 0.0 0.0 0.00 0.00 0.00 98 1010.5
20260901134332 59 0 0.0 0.0 0.00 0.00 0.00 98 1010.4
20260901133830 59 0 0.0 0.0 0.00 0.00 0.00 98 1010.4
20260901133330 59 0 0.0 0.0 0.00 0.00 0.00 98 1010.3
20260901132830 59 0 0.0 0.0 0.00 0.00 0.00 98 1010.3
20260901131832 59 0 0.0 0.0 0.00 0.00 0.00 98 1010.3
20260901130330 59 0 0.0 0.0 0.00 0.00 0.00 98 1010.2
20260901125831 59 0 0.0 0.0 0.00 0.00 0.00 97 1010.1
20260901125330 59 0 0.0 0.0 0.00 0.00 0.00 97 1010.3
20260901124830 59 0 0.0 0.0 0.00 0.00 0.00 97 1010.3
20260901123830 59 0 0.0 0.0 0.00 0.00 0.00 97 1010.3
20260901123330 59 0 0.0 0.0 0.00 0.00 0.00 97 1010.3
20260901122830 59 0 0.0 0.0 0.00 0.00 0.00 97 1010.4
20260901122335 59 0 0.0 0.0 0.00 0.00 0.00 97 1010.3
20260901121334 59 0 0.0 0.0 0.00 0.00 0.00 97 1010.4
20260901120830 59 0 0.0 0.0 0.00 0.00 0.00 97 1010.3
20260901120422 59 0 0.0 0.0 0.00 0.00 0.00 97 1010.4
20260901120330 59 0 0.0 0.0 0.00 0.00 0.00 97 1010.4
20260901115830 59 0 0.0 0.0 0.00 0.00 0.00 97 1010.4
20260901115330 59 0 0.0 0.0 0.00 0.00 0.00 97 1010.4
20260901114830 59 0 0.0 0.0 0.00 0.00 0.00 96 1010.5
20260901114335 60 0 0.0 0.0 0.00 0.00 0.00 96 1010.5
20260901113830 60 0 0.0 0.0 0.00 0.00 0.00 96 1010.5
20260901113330 59 0 0.0 0.0 0.00 0.00 0.00 96 1010.6